• In Hungary
  • List of Countries
  • For 7 days
  • Water Temperature
  • Satellite Maps
  • Weather Map
  • News
  • Weather Widgets
  • user-avatar
    Login

    Hourly Weather Verhnevodyanoy

    Today, 25 May, Friday

    Time Temperature Precipitation Wind Pressure Humidity
    00:00 +20°C° 0.5 mm 2 mps 746 mmHg 86%
    01:00 +20°C° 0.2 mm 2 mps 746 mmHg 87%
    02:00 +19°C° 0.2 mm 2 mps 746 mmHg 88%
    03:00 +19°C° 0 mm 2 mps 745 mmHg 90%
    04:00 +19°C° 0 mm 2 mps 745 mmHg 89%
    05:00 +20°C° 0 mm 3 mps 745 mmHg 87%
    06:00 +20°C° 0 mm 3 mps 745 mmHg 86%
    07:00 +22°C° 0 mm 3 mps 745 mmHg 79%
    08:00 +24°C° 0 mm 3 mps 745 mmHg 72%
    09:00 +26°C° 0 mm 3 mps 745 mmHg 63%
    10:00 +27°C° 0 mm 3 mps 745 mmHg 58%
    11:00 +28°C° 0 mm 3 mps 745 mmHg 53%
    12:00 +29°C° 0 mm 3 mps 745 mmHg 48%
    13:00 +29°C° 0 mm 3 mps 745 mmHg 48%
    14:00 +29°C° 0 mm 3 mps 745 mmHg 47%
    15:00 +30°C° 0 mm 2 mps 745 mmHg 45%
    16:00 +30°C° 0 mm 2 mps 744 mmHg 48%
    17:00 +29°C° 0 mm 3 mps 744 mmHg 50%
    18:00 +29°C° 0 mm 3 mps 744 mmHg 52%
    19:00 +27°C° 0 mm 3 mps 744 mmHg 58%
    20:00 +26°C° 0 mm 3 mps 744 mmHg 63%
    21:00 +24°C° 0 mm 2 mps 744 mmHg 68%
    22:00 +22°C° 0 mm 3 mps 745 mmHg 71%
    23:00 +22°C° 0 mm 3 mps 745 mmHg 74%

    Tomorrow, 26 May, Saturday

    Time Temperature Precipitation Wind Pressure Humidity
    00:00 +21°C° 0 mm 3 mps 745 mmHg 76%
    01:00 +21°C° 0 mm 3 mps 745 mmHg 78%
    02:00 +20°C° 0 mm 4 mps 746 mmHg 80%
    03:00 +19°C° 0 mm 5 mps 746 mmHg 81%
    04:00 +19°C° 0 mm 6 mps 747 mmHg 80%
    05:00 +17°C° 0 mm 7 mps 747 mmHg 79%
    06:00 +17°C° 0 mm 8 mps 748 mmHg 78%
    07:00 +17°C° 0 mm 9 mps 749 mmHg 73%
    08:00 +17°C° 0 mm 9 mps 749 mmHg 68%
    09:00 +17°C° 0 mm 9 mps 750 mmHg 63%
    10:00 +17°C° 0 mm 9 mps 751 mmHg 58%
    11:00 +17°C° 0 mm 10 mps 751 mmHg 52%
    12:00 +18°C° 0 mm 10 mps 752 mmHg 46%
    13:00 +18°C° 0 mm 9 mps 752 mmHg 44%
    14:00 +18°C° 0 mm 9 mps 753 mmHg 41%
    15:00 +18°C° 0 mm 8 mps 753 mmHg 39%
    16:00 +18°C° 0 mm 8 mps 754 mmHg 40%
    17:00 +18°C° 0 mm 7 mps 754 mmHg 41%
    18:00 +17°C° 0 mm 7 mps 754 mmHg 41%
    19:00 +16°C° 0 mm 7 mps 755 mmHg 43%
    20:00 +15°C° 0 mm 6 mps 756 mmHg 44%
    21:00 +13°C° 0 mm 6 mps 756 mmHg 45%
    22:00 +13°C° 0 mm 6 mps 757 mmHg 46%
    23:00 +11°C° 0 mm 6 mps 757 mmHg 46%

    Day after tomorrow, 27 May, Sunday

    Time Temperature Precipitation Wind Pressure Humidity
    00:00 +11°C° 0 mm 7 mps 757 mmHg 47%
    01:00 +10°C° 0 mm 7 mps 757 mmHg 47%
    02:00 +10°C° 0 mm 7 mps 757 mmHg 48%
    03:00 +9°C° 0 mm 7 mps 757 mmHg 49%
    04:00 +9°C° 0 mm 7 mps 758 mmHg 50%
    05:00 +9°C° 0 mm 7 mps 758 mmHg 52%
    06:00 +9°C° 0 mm 7 mps 758 mmHg 54%
    07:00 +11°C° 0 mm 7 mps 758 mmHg 51%
    08:00 +12°C° 0 mm 7 mps 758 mmHg 48%
    09:00 +15°C° 0 mm 8 mps 758 mmHg 45%
    10:00 +16°C° 0 mm 8 mps 758 mmHg 43%
    11:00 +17°C° 0 mm 8 mps 758 mmHg 40%
    12:00 +18°C° 0 mm 8 mps 758 mmHg 38%
    13:00 +20°C° 0 mm 7 mps 757 mmHg 37%
    14:00 +20°C° 0 mm 7 mps 757 mmHg 35%
    15:00 +21°C° 0 mm 7 mps 757 mmHg 34%
    16:00 +21°C° 0 mm 7 mps 756 mmHg 36%
    17:00 +20°C° 0 mm 6 mps 756 mmHg 38%
    18:00 +20°C° 0 mm 5 mps 756 mmHg 40%
    19:00 +17°C° 0 mm 5 mps 756 mmHg 41%
    20:00 +17°C° 0 mm 4 mps 756 mmHg 43%
    21:00 +14°C° 0 mm 4 mps 756 mmHg 44%
    22:00 +13°C° 0 mm 4 mps 755 mmHg 46%
    23:00 +12°C° 0 mm 4 mps 755 mmHg 48%

    28 May, Monday

    Time Temperature Precipitation Wind Pressure Humidity
    00:00 +12°C° 0 mm 4 mps 755 mmHg 49%
    01:00 +11°C° 0 mm 4 mps 755 mmHg 52%
    02:00 +11°C° 0 mm 3 mps 755 mmHg 55%
    03:00 +10°C° 0 mm 3 mps 755 mmHg 57%
    04:00 +11°C° 0 mm 3 mps 755 mmHg 58%
    05:00 +11°C° 0 mm 3 mps 755 mmHg 59%
    06:00 +12°C° 0 mm 3 mps 755 mmHg 60%
    07:00 +14°C° 0 mm 4 mps 755 mmHg 53%
    08:00 +17°C° 0 mm 4 mps 755 mmHg 46%
    09:00 +19°C° 0 mm 4 mps 755 mmHg 39%
    10:00 +20°C° 0 mm 4 mps 755 mmHg 36%
    11:00 +22°C° 0 mm 4 mps 754 mmHg 32%
    12:00 +23°C° 0 mm 5 mps 754 mmHg 29%
    13:00 +25°C° 0 mm 4 mps 754 mmHg 28%
    14:00 +25°C° 0 mm 4 mps 754 mmHg 27%
    15:00 +26°C° 0 mm 4 mps 753 mmHg 26%
    16:00 +25°C° 0 mm 3 mps 753 mmHg 30%
    17:00 +25°C° 0 mm 3 mps 753 mmHg 33%
    18:00 +24°C° 0 mm 3 mps 753 mmHg 37%
    19:00 +21°C° 0 mm 3 mps 753 mmHg 40%
    20:00 +19°C° 0 mm 3 mps 753 mmHg 43%
    21:00 +17°C° 0 mm 3 mps 753 mmHg 47%
    22:00 +17°C° 0 mm 3 mps 753 mmHg 51%
    23:00 +17°C° 0 mm 4 mps 753 mmHg 55%

    29 May, Tuesday

    Time Temperature Precipitation Wind Pressure Humidity
    00:00 +15°C° 0 mm 4 mps 754 mmHg 59%
    01:00 +15°C° 0 mm 4 mps 754 mmHg 61%
    02:00 +15°C° 0 mm 5 mps 754 mmHg 62%
    03:00 +14°C° 0 mm 5 mps 754 mmHg 64%
    04:00 +14°C° 0 mm 5 mps 754 mmHg 62%
    05:00 +14°C° 0 mm 6 mps 754 mmHg 61%
    06:00 +14°C° 0 mm 6 mps 755 mmHg 59%
    07:00 +15°C° 0 mm 6 mps 755 mmHg 55%
    08:00 +17°C° 0 mm 7 mps 755 mmHg 50%
    09:00 +18°C° 0 mm 7 mps 755 mmHg 46%
    10:00 +20°C° 0 mm 7 mps 755 mmHg 43%
    11:00 +21°C° 0 mm 7 mps 755 mmHg 40%
    12:00 +22°C° 0 mm 6 mps 755 mmHg 38%
    13:00 +22°C° 0 mm 6 mps 755 mmHg 36%
    14:00 +22°C° 0 mm 6 mps 755 mmHg 35%
    15:00 +23°C° 0 mm 6 mps 755 mmHg 34%
    16:00 +22°C° 0 mm 6 mps 754 mmHg 35%
    17:00 +21°C° 0 mm 6 mps 754 mmHg 37%
    18:00 +21°C° 0 mm 5 mps 754 mmHg 38%
    19:00 +19°C° 0 mm 5 mps 754 mmHg 39%
    20:00 +17°C° 0 mm 4 mps 754 mmHg 41%
    21:00 +15°C° 0 mm 4 mps 754 mmHg 42%
    22:00 +14°C° 0 mm 4 mps 754 mmHg 42%
    23:00 +14°C° 0 mm 4 mps 754 mmHg 41%

    30 May, Wednesday

    Time Temperature Precipitation Wind Pressure Humidity
    00:00 +13°C° 0 mm 4 mps 754 mmHg 41%
    01:00 +13°C° 0 mm 4 mps 754 mmHg 41%
    02:00 +12°C° 0 mm 4 mps 754 mmHg 42%
    03:00 +12°C° 0 mm 4 mps 754 mmHg 43%
    04:00 +12°C° 0 mm 4 mps 754 mmHg 45%
    05:00 +12°C° 0 mm 4 mps 754 mmHg 47%
    06:00 +13°C° 0 mm 4 mps 754 mmHg 49%
    07:00 +15°C° 0 mm 4 mps 754 mmHg 44%
    08:00 +17°C° 0 mm 5 mps 754 mmHg 39%
    09:00 +20°C° 0 mm 6 mps 754 mmHg 35%
    10:00 +21°C° 0 mm 6 mps 753 mmHg 33%
    11:00 +22°C° 0 mm 6 mps 753 mmHg 32%
    12:00 +23°C° 0 mm 6 mps 752 mmHg 31%
    13:00 +24°C° 0 mm 6 mps 752 mmHg 30%
    14:00 +26°C° 0 mm 6 mps 752 mmHg 30%
    15:00 +26°C° 0 mm 5 mps 751 mmHg 29%
    16:00 +26°C° 0 mm 5 mps 751 mmHg 32%
    17:00 +25°C° 0 mm 4 mps 751 mmHg 35%
    18:00 +25°C° 0 mm 3 mps 750 mmHg 38%
    19:00 +22°C° 0 mm 3 mps 750 mmHg 40%
    20:00 +20°C° 0 mm 3 mps 750 mmHg 41%
    21:00 +18°C° 0 mm 3 mps 750 mmHg 43%
    22:00 +17°C° 0 mm 3 mps 750 mmHg 46%
    23:00 +16°C° 0 mm 3 mps 749 mmHg 49%
    Show more